Location: Sungai Laei
(2.6000°N, 113.7167°E)
Time: 08:23:57
(UTC+00:00)

Hubble Space Telescope - Visible Passes

Search period start: 06 October 2022 00:00
Search period end: 16 October 2022 00:00
Orbit: 531 x 535 km, 28.5° (Epoch: 05 October)

Date Brightness Start Highest point End Pass type
(mag) Time Alt. Az. Time Alt. Az. Time Alt. Az.
06 Oct 3.0 11:41:50 10° NNW 11:43:02 15° N 11:43:02 15° N visible
07 Oct 2.2 11:29:07 10° NNW 11:31:51 23° NNE 11:31:51 23° NNE visible
08 Oct 1.6 11:16:32 10° NW 11:20:11 31° NNE 11:20:46 30° NE visible
09 Oct 1.2 11:04:00 10° NW 11:07:54 43° NNE 11:09:46 26° E visible
10 Oct 0.8 10:51:34 10° NW 10:55:36 61° NNE 10:58:51 15° ESE visible
10 Oct 3.9 12:33:34 10° WSW 12:34:08 12° WSW 12:34:08 12° WSW visible
11 Oct 0.7 10:39:12 10° WNW 10:43:17 86° NNE 10:47:23 10° ESE visible
11 Oct 3.6 12:21:56 10° WSW 12:23:16 14° SW 12:23:16 14° SW visible
12 Oct 1.1 10:26:55 10° WNW 10:30:58 68° SSW 10:35:02 10° SE visible
12 Oct 3.6 12:10:46 10° SW 12:12:04 11° SSW 12:12:25 11° SSW visible
12 Oct 3.6 20:42:57 10° S 20:44:28 12° SSE 20:45:58 10° SE visible
13 Oct 3.3 20:30:27 13° S 20:32:11 16° SSE 20:34:41 10° ESE visible
14 Oct 2.9 20:19:34 21° SSE 20:19:52 21° SSE 20:23:00 10° E visible
15 Oct 2.9 20:08:41 24° ESE 20:08:41 24° ESE 20:11:05 10° E visible
15 Oct 1.3 21:44:39 10° W 21:48:32 42° NNW 21:52:26 10° NE visible
